User: anonymous   Login
Location: �chenoz-la-M�line
(47.6009°N, 6.1354°E)
Time: 01:43:11
(UTC+00:00)
Language:

Gbstr 26 Del rocket - Orbit

View from above orbital plane
View from above orbital plane
View from above satellite
View from above satellite

Ground track
Ground track

The orbit data is extracted from the following two-line orbital elements,

1 25876U 99041E   21106.50641542 -.00000014  00000-0  38777-4 0  9990
2 25876  51.7635 193.8792 0531553 147.9830 215.4586 14.04557918111211
Epoch (UTC): 16 April 2021 12:09:14
Eccentricity: 0.0531553
inclination: 51.7635°
perigee height: 492 km
apogee height: 1264 km
right ascension of ascending node: 193.8792°
argument of perigee: 147.9830°
revolutions per day: 14.04557918
mean anomaly at epoch: 215.4586°
orbit number at epoch: 11121

The dashed part of the orbit path shows where the satellite is in the earth's shadow,  

DLR